| time (UTC) | temp C | wind direction | speed KPH | gust KPH | rain 1hr cm | rain 24hr cm | rain mn cm | humidity % | barometer mb |
| 20260505124514 | 11 | 149 | 22.5 | 32.2 | 0.00 | 0.10 | 0.00 | 79 | 1008.6 |
| 20260505123009 | 11 | 146 | 20.9 | 33.8 | 0.00 | 0.10 | 0.00 | 80 | 1008.7 |
| 20260505121508 | 10 | 150 | 17.7 | 32.2 | 0.00 | 0.10 | 0.00 | 80 | 1008.9 |
| 20260505120010 | 10 | 156 | 19.3 | 32.2 | 0.00 | 0.10 | 0.00 | 82 | 1008.9 |
| 20260505114504 | 10 | 132 | 17.7 | 30.6 | 0.00 | 0.10 | 0.00 | 81 | 1008.9 |
| 20260505113002 | 9 | 136 | 17.7 | 29.0 | 0.00 | 0.10 | 0.00 | 82 | 1008.7 |
| 20260505111603 | 9 | 150 | 17.7 | 25.7 | 0.00 | 0.10 | 0.00 | 83 | 1008.6 |
| 20260505101555 | 8 | 142 | 19.3 | 30.6 | 0.00 | 0.10 | 0.00 | 86 | 1008.6 |
| 20260505100050 | 7 | 118 | 16.1 | 25.7 | 0.00 | 0.10 | 0.00 | 86 | 1008.4 |
| 20260505094558 | 7 | 140 | 17.7 | 25.7 | 0.00 | 0.10 | 0.00 | 86 | 1008.4 |
| 20260505093053 | 7 | 148 | 16.1 | 25.7 | 0.00 | 0.10 | 0.00 | 86 | 1008.2 |
| 20260505091547 | 7 | 139 | 17.7 | 27.4 | 0.00 | 0.10 | 0.00 | 85 | 1008.2 |
| 20260505090053 | 7 | 157 | 17.7 | 29.0 | 0.00 | 0.10 | 0.00 | 85 | 1008.2 |
| 20260505084545 | 7 | 130 | 16.1 | 24.1 | 0.00 | 0.10 | 0.00 | 86 | 1008.2 |
| 20260505083100 | 7 | 129 | 14.5 | 24.1 | 0.00 | 0.10 | 0.00 | 86 | 1008.2 |
| 20260505081541 | 7 | 136 | 14.5 | 20.9 | 0.00 | 0.10 | 0.00 | 86 | 1008.2 |
| 20260505080042 | 7 | 125 | 14.5 | 20.9 | 0.00 | 0.10 | 0.00 | 85 | 1008.1 |
| 20260505074537 | 7 | 148 | 12.9 | 24.1 | 0.00 | 0.10 | 0.00 | 85 | 1008.2 |
| 20260505073037 | 7 | 150 | 14.5 | 22.5 | 0.00 | 0.10 | 0.00 | 84 | 1008.1 |
| 20260505071535 | 7 | 149 | 12.9 | 22.5 | 0.00 | 0.10 | 0.00 | 84 | 1008.1 |
| 20260505070041 | 7 | 117 | 17.7 | 25.7 | 0.00 | 0.10 | 0.00 | 84 | 1008.2 |
| 20260505064533 | 8 | 130 | 14.5 | 22.5 | 0.00 | 0.10 | 0.00 | 83 | 1008.1 |
| 20260505063030 | 8 | 124 | 12.9 | 20.9 | 0.00 | 0.10 | 0.00 | 83 | 1008.0 |
| 20260505061538 | 8 | 134 | 14.5 | 22.5 | 0.00 | 0.10 | 0.00 | 83 | 1008.0 |
| 20260505060027 | 8 | 136 | 12.9 | 20.9 | 0.00 | 0.10 | 0.00 | 84 | 1008.0 |
| 20260505054540 | 8 | 129 | 9.7 | 20.9 | 0.00 | 0.10 | 0.00 | 84 | 1007.9 |
| 20260505053026 | 8 | 138 | 12.9 | 19.3 | 0.00 | 0.10 | 0.00 | 83 | 1007.9 |
| 20260505051523 | 8 | 121 | 14.5 | 24.1 | 0.00 | 0.10 | 0.00 | 83 | 1007.7 |
| 20260505041517 | 8 | 126 | 14.5 | 20.9 | 0.00 | 0.10 | 0.10 | 83 | 1007.6 |
| 20260505040034 | 8 | 138 | 11.3 | 20.9 | 0.00 | 0.10 | 0.10 | 83 | 1007.6 |
| 20260505034617 | 8 | 141 | 11.3 | 19.3 | 0.00 | 0.10 | 0.10 | 83 | 1007.6 |
| 20260505033016 | 8 | 153 | 9.7 | 19.3 | 0.00 | 0.10 | 0.10 | 83 | 1007.5 |
| 20260505031514 | 8 | 152 | 12.9 | 20.9 | 0.00 | 0.10 | 0.10 | 82 | 1007.5 |
| 20260505030016 | 8 | 150 | 12.9 | 20.9 | 0.00 | 0.10 | 0.10 | 81 | 1007.4 |
| 20260505024512 | 8 | 147 | 14.5 | 20.9 | 0.00 | 0.10 | 0.10 | 80 | 1007.6 |
| 20260505023013 | 8 | 143 | 9.7 | 16.1 | 0.00 | 0.10 | 0.10 | 81 | 1007.6 |
| 20260505021511 | 7 | 120 | 11.3 | 16.1 | 0.00 | 0.10 | 0.10 | 82 | 1007.4 |
| 20260505020013 | 7 | 129 | 14.5 | 19.3 | 0.00 | 0.10 | 0.10 | 82 | 1007.4 |
| 20260505014510 | 7 | 118 | 9.7 | 16.1 | 0.00 | 0.10 | 0.10 | 81 | 1007.4 |
| 20260505013009 | 8 | 129 | 12.9 | 20.9 | 0.00 | 0.10 | 0.10 | 81 | 1007.3 |
| 20260505011509 | 7 | 126 | 12.9 | 20.9 | 0.00 | 0.10 | 0.10 | 81 | 1007.2 |
| 20260505010009 | 7 | 123 | 12.9 | 20.9 | 0.00 | 0.10 | 0.10 | 81 | 1007.1 |
| 20260505004514 | 7 | 124 | 11.3 | 17.7 | 0.00 | 0.10 | 0.10 | 82 | 1006.9 |
| 20260505003007 | 7 | 123 | 9.7 | 14.5 | 0.00 | 0.10 | 0.10 | 81 | 1006.7 |
| 20260505001507 | 8 | 134 | 8.0 | 14.5 | 0.00 | 0.10 | 0.10 | 79 | 1006.6 |
| 20260505000007 | 9 | 136 | 9.7 | 16.1 | 0.00 | 0.10 | 0.10 | 76 | 1006.5 |
| 20260504234507 | 10 | 130 | 12.9 | 19.3 | 0.00 | 0.10 | 0.10 | 75 | 1006.2 |
| 20260504233005 | 10 | 128 | 9.7 | 16.1 | 0.00 | 0.10 | 0.10 | 75 | 1005.9 |
| 20260504231505 | 10 | 120 | 8.0 | 12.9 | 0.00 | 0.10 | 0.10 | 74 | 1005.8 |
| 20260504230005 | 10 | 128 | 8.0 | 14.5 | 0.00 | 0.10 | 0.10 | 74 | 1005.7 |
| 20260504224503 | 11 | 122 | 4.8 | 11.3 | 0.00 | 0.10 | 0.10 | 73 | 1005.4 |
| 20260504223004 | 12 | 129 | 8.0 | 11.3 | 0.00 | 0.10 | 0.10 | 70 | 1005.3 |
| 20260504221502 | 12 | 120 | 1.6 | 11.3 | 0.00 | 0.10 | 0.10 | 68 | 1005.4 |
| 20260504220004 | 12 | 134 | 4.8 | 11.3 | 0.00 | 0.10 | 0.10 | 66 | 1005.5 |
| 20260504214501 | 13 | 135 | 6.4 | 12.9 | 0.00 | 0.10 | 0.10 | 63 | 1005.2 |
| 20260504213002 | 13 | 144 | 9.7 | 16.1 | 0.00 | 0.10 | 0.10 | 64 | 1005.2 |
| 20260504211501 | 13 | 140 | 8.0 | 14.5 | 0.00 | 0.10 | 0.10 | 62 | 1005.2 |
| 20260504210106 | 13 | 131 | 11.3 | 19.3 | 0.00 | 0.10 | 0.10 | 61 | 1005.1 |
| 20260504204605 | 14 | 171 | 9.7 | 20.9 | 0.00 | 0.10 | 0.10 | 62 | 1005.0 |
| 20260504203101 | 14 | 113 | 9.7 | 20.9 | 0.00 | 0.10 | 0.10 | 66 | 1005.0 |
| 20260504201559 | 14 | 130 | 11.3 | 20.9 | 0.00 | 0.10 | 0.10 | 68 | 1004.8 |
| 20260504200058 | 13 | 120 | 12.9 | 20.9 | 0.00 | 0.13 | 0.10 | 70 | 1004.8 |
| 20260504194600 | 14 | 170 | 6.4 | 12.9 | 0.00 | 0.13 | 0.10 | 72 | 1004.9 |
| 20260504193109 | 13 | 167 | 8.0 | 12.9 | 0.00 | 0.13 | 0.10 | 79 | 1004.9 |
| 20260504191554 | 12 | 178 | 4.8 | 12.9 | 0.03 | 0.13 | 0.10 | 79 | 1005.1 |
| 20260504184551 | 10 | 182 | 4.8 | 8.0 | 0.10 | 0.20 | 0.10 | 88 | 1005.6 |
| 20260504183058 | 8 | 188 | 4.8 | 11.3 | 0.10 | 0.20 | 0.10 | 88 | 1006.0 |
| 20260504181548 | 8 | 193 | 8.0 | 20.9 | 0.08 | 0.18 | 0.08 | 86 | 1006.1 |
| 20260504180122 | 8 | 165 | 8.0 | 20.9 | 0.03 | 0.25 | 0.03 | 80 | 1005.8 |
| 20260504174546 | 10 | 182 | 11.3 | 19.3 | 0.00 | 0.23 | 0.00 | 69 | 1005.5 |
| 20260504173046 | 10 | 157 | 14.5 | 22.5 | 0.00 | 0.23 | 0.00 | 68 | 1005.3 |
| 20260504171548 | 10 | 140 | 17.7 | 30.6 | 0.00 | 0.23 | 0.00 | 69 | 1005.3 |